Volver al catálogo

STARLINK-3716

ActivoComunicacionesVLEO
NORAD 52092·PAYLOAD·🇺🇸 United States

Lanzado Mar 19, 2022 desde Cape Canaveral Space Force Station

Loading…

Próximos Pases (próximas 24 horas)

TLE

ActualizadoSource: CelesTrak SupGP

Época: Sep 14, 2026, 21:00 UTC

1 52092C 22029E   26257.87548611 -.00012860  00000+0 -31823-3 0  2570
2 52092  53.1621 311.5377 0001816  74.3324 322.2301 15.39874499    17

Sigue STARLINK-3716 en tiempo real con AllMySat

Download on the App Store